Retour au catalogue

FENGYUN 1C DEB

ActifSSO
NORAD 37423·DEBRIS·🇨🇳 China

Lancé May 10, 1999 depuis Taiyuan Satellite Launch Center

Loading…

Prochains Passages (prochaines 24 heures)

TLE

FraisSource: Space-Track

Époque: Sep 14, 2026, 08:44 UTC

1 37423U 99025EGR 26257.36393442  .00000673  00000-0  41462-3 0  9996
2 37423  98.7619 304.8228 0049529 103.6554 257.0138 14.08148877674888

Suivez FENGYUN 1C DEB en temps réel avec AllMySat

Download on the App Store